Weather History for KFMN - March, 2013

Change the Weather History Date:

Saturday, March 30, 2013

  Actual Average Record
Temperature  
Mean Temperature 52 °F -  
Max Temperature 71 °F 60 °F 78 °F (2015)
Min Temperature 34 °F 31 °F 13 °F (1987)
Degree Days  
Heating Degree Days 12    
Growing Degree Days 2 (Base 50)    
Moisture  
Dew Point 20 °F    
Average Humidity 29    
Maximum Humidity 57    
Minimum Humidity 5    
Precipitation  
Precipitation 0.00 in - - ()
Sea Level Pressure  
Sea Level Pressure 30.07 in    
Wind  
Wind Speed 7 mph (North)    
Max Wind Speed 18 mph    
Max Gust Speed 28 mph    
Visibility 10 miles    
Events      
Averages and records for this station are not official NWS values.
T = Trace of Precipitation, MM = Missing Value Source: NWS Daily Summary

Daily Weather History Graph

Daily Weather History Graph

Search for Another Location

Airport or City:

Trip Planner

Search our weather history database for the weather conditions in past years. The results will help you decide how hot, cold, wet, or windy it might be!

Date:

Astronomy

Mar. 30, 2013 Rise Set
Actual Time 7:01 AM MDT 7:33 PM MDT
Civil Twilight 6:35 AM MDT 7:59 PM MDT
Nautical Twilight 6:04 AM MDT 8:30 PM MDT
Astronomical Twilight 5:33 AM MDT 9:01 PM MDT
Moon 11:37 PM MDT (3/30) 9:04 AM MDT (3/30)
Length of Visible Light 13h 24m
Length of Day
12h 32m
Waning Gibbous, 86% of the Moon is Illuminated
Mar 30
Waning Gibbous
Apr 2
Last Quarter
Apr 10
New
Apr 18
First Quarter
Apr 25
Full

Hourly Weather History & Observations

Time (MDT) Temp. Windchill Dew Point Humidity Pressure Visibility Wind Dir Wind Speed Gust Speed Precip Events Conditions
12:53 AM 41.0 °F 35.8 °F 19.0 °F 41% 30.12 in 10.0 mi NE 8.1 mph - N/A   Clear
1:53 AM 36.0 °F 31.1 °F 18.0 °F 48% 30.12 in 10.0 mi East 5.8 mph - N/A   Clear
2:53 AM 37.9 °F 35.5 °F 19.9 °F 48% 30.11 in 10.0 mi NE 3.5 mph - N/A   Clear
3:53 AM 34.0 °F 31.0 °F 18.0 °F 52% 30.12 in 10.0 mi ESE 3.5 mph - N/A   Clear
4:53 AM 34.0 °F 31.0 °F 19.9 °F 56% 30.12 in 10.0 mi East 3.5 mph - N/A   Clear
5:53 AM 34.0 °F 28.0 °F 19.9 °F 56% 30.13 in 10.0 mi East 6.9 mph - N/A   Clear
6:53 AM 35.1 °F 29.3 °F 21.0 °F 57% 30.15 in 10.0 mi ENE 6.9 mph - N/A   Clear
7:53 AM 39.0 °F 34.8 °F 23.0 °F 53% 30.17 in 10.0 mi East 5.8 mph - N/A   Clear
8:53 AM 43.0 °F 38.8 °F 24.1 °F 47% 30.16 in 10.0 mi ESE 6.9 mph - N/A   Clear
9:53 AM 48.9 °F - 25.0 °F 39% 30.16 in 10.0 mi ESE 8.1 mph - N/A   Clear
10:53 AM 55.9 °F - 25.0 °F 30% 30.14 in 10.0 mi ESE 4.6 mph - N/A   Clear
11:53 AM 64.0 °F - 23.0 °F 21% 30.10 in 10.0 mi WNW 5.8 mph - N/A   Clear
12:53 PM 69.1 °F - 21.9 °F 17% 30.07 in 10.0 mi West 10.4 mph - N/A   Clear
1:53 PM 70.0 °F - 19.0 °F 14% 30.05 in 10.0 mi West 13.8 mph 19.6 mph N/A   Clear
2:53 PM 68.0 °F - 17.1 °F 14% 30.02 in 10.0 mi WNW 13.8 mph 27.6 mph N/A   Clear
3:53 PM 68.0 °F - 15.1 °F 13% 30.01 in 10.0 mi WNW 18.4 mph 24.2 mph N/A   Clear
4:53 PM 70.0 °F - 17.1 °F 13% 29.99 in 10.0 mi West 18.4 mph 25.3 mph N/A   Clear
5:53 PM 69.1 °F - 15.1 °F 13% 29.98 in 10.0 mi WNW 15.0 mph 21.9 mph N/A   Clear
6:53 PM 66.0 °F - 16.0 °F 15% 29.99 in 10.0 mi West 13.8 mph 23.0 mph N/A   Mostly Cloudy
7:53 PM 63.0 °F - 18.0 °F 18% 30.00 in 10.0 mi West 10.4 mph - N/A   Scattered Clouds
8:53 PM 59.0 °F - 18.0 °F 20% 30.02 in 10.0 mi NNW 4.6 mph - N/A   Mostly Cloudy
9:53 PM 55.9 °F - 18.0 °F 23% 30.02 in 10.0 mi West 8.1 mph - N/A   Partly Cloudy
10:53 PM 52.0 °F - 21.0 °F 30% 30.01 in 10.0 mi Calm Calm - N/A   Clear
11:53 PM 48.9 °F - 21.0 °F 33% 30.00 in 10.0 mi Calm Calm - N/A   Scattered Clouds